Regional Weather Roundup
Issued by NWS

Home | Current Version | Previous Version | Text Only | Print | Product List | Glossary Off
Versions: 1 2 3 4 5 6 7 8 9 10 11 12 13 14 15 16 17 18 19 20 21 22 23 24 25 26 27 28 29 30 31 32 33 34 35 36 37 38 39 40 41 42 43 44 45 46 47 48 49 50

000
ASUS45 KBOI 291810
RWRID

IDAHO REGIONAL WEATHER ROUNDUP
NATIONAL WEATHER SERVICE BOISE ID
1200 PM MDT MON JUN 29 2015

NOTE: "FAIR" INDICATES FEW OR NO CLOUDS BELOW 12000 FEET
WITH NO SIGNIFICANT WEATHER AND/OR OBSTRUCTIONS TO VISIBILITY

IDZ012-014-291900-
SOUTHWEST IDAHO


CITY           SKY/WX    TMP DP  RH WIND       PRES   REMARKS
BOISE          MOSUNNY   93  54  26 W8        29.97F HX  91
CALDWELL       MOSUNNY   93  57  29 NW8       29.97F HX  92
MOUNTAIN HOME  PTSUNNY   95  48  19 E8        29.98S HX  92
$$

IDZ016-017-291900-
SOUTHCENTRAL IDAHO


CITY           SKY/WX    TMP DP  RH WIND       PRES   REMARKS
BURLEY         SUNNY     88  54  31 VRB5      30.07F
JEROME         SUNNY     87  54  32 VRB5      30.07F
TWIN FALLS     SUNNY     93  52  24 NW9       30.05F HX  90
$$

IDZ019>023-291900-
SOUTHEAST IDAHO


CITY           SKY/WX    TMP DP  RH WIND       PRES   REMARKS
IDAHO FALLS    SUNNY     87  65  47 NW8       30.15S
POCATELLO      SUNNY     94  56  27 NE5       30.11F HX  92
REXBURG        SUNNY     87  52  29 NE7       30.16F
$$

IDZ006-010-011-018-031-032-291900-
CENTRAL IDAHO MOUNTAINS


CITY           SKY/WX    TMP DP  RH WIND       PRES   REMARKS
MCCALL         PTSUNNY   85  52  32 N3        30.14F
HAILEY         MOSUNNY   88  55  33 SE8       30.18S
STANLEY          N/A     73  46  38 CALM      30.30F
SALMON           N/A     86  48  26 W3        30.06F
CHALLIS        PTSUNNY   83  48  29 SE6       30.16F
$$

IDZ002-004-006-007-026-291900-
NORTHERN IDAHO


CITY           SKY/WX    TMP DP  RH WIND       PRES   REMARKS
LEWISTON       CLOUDY    90  58  33 N5        29.91F
LOWELL           N/A     79  66  64 CALM      29.98R
COEUR D`ALENE  PTSUNNY   90  57  33 NW9       29.97R
MULLAN PASS    CLOUDY    73  52  47 CALM      30.24F
$$


USA.gov is the U.S. government's official web portal to all federal, state and local government web resources and services.